WetterOnline ( https://www.wetteronline.de )

Wetter aktuell Kirchdorf i.Wald

Aktuelles Wetter: Zwiesel (613m)

6-stündlich | Neueste Meldungen
Ortszeit Temperatur Wetter
Di, 26.10. 20:00 5.1° C wolkig
Di, 26.10. 14:00 9.0° C bedeckt
Di, 26.10. 8:00 -0.9° C wolkig
Di, 26.10. 2:00 1.4° C leicht bewölkt
Mo, 25.10. 20:00 4.3° C bedeckt
Mo, 25.10. 14:00 9.5° C leicht bewölkt
Mo, 25.10. 8:00 -3.3° C wolkenlos
Mo, 25.10. 2:00 -2.1° C wolkenlos
Ortszeit Temperatur Wetter
Di, 26.10. 22:00 5.1° C bewölkt
Di, 26.10. 21:50 5.1° C bewölkt
Di, 26.10. 21:40 5.4° C bewölkt
Di, 26.10. 21:30 5.1° C bewölkt
Di, 26.10. 21:20 5.1° C bewölkt
Di, 26.10. 21:10 5.2° C bewölkt
Di, 26.10. 21:00 5.5° C bewölkt
Di, 26.10. 20:30 5.3° C bewölkt
Di, 26.10. 20:00 5.1° C wolkig
Di, 26.10. 19:30 5.8° C wolkenlos
Di, 26.10. 19:00 6.8° C leicht bewölkt
Ortszeit Relative Feuchte Sichtweite
Di, 26.10. 20:00 94% 27 km
Di, 26.10. 14:00 78% 25 km
Di, 26.10. 8:00 97% 19 km
Di, 26.10. 2:00 96% 19 km
Mo, 25.10. 20:00 90% 26 km
Mo, 25.10. 14:00 58% 55 km
Mo, 25.10. 8:00 91% 40 km
Mo, 25.10. 2:00 95% 35 km
Ortszeit Relative Feuchte Sichtweite
Di, 26.10. 22:00 94% 16 km
Di, 26.10. 21:50 94% -
Di, 26.10. 21:40 93% -
Di, 26.10. 21:30 93% 17 km
Di, 26.10. 21:20 93% -
Di, 26.10. 21:10 93% -
Di, 26.10. 21:00 93% 20 km
Di, 26.10. 20:30 94% 21 km
Di, 26.10. 20:00 94% 27 km
Di, 26.10. 19:30 91% 25 km
Di, 26.10. 19:00 85% 35 km
Ortszeit Niederschlagsmenge Niederschlagsart
Di, 26.10. 20:00 0.0 l/m2 in 12 Std. -
Di, 26.10. 14:00 0.0 l/m2 in 6 Std. -
Di, 26.10. 8:00 0.0 l/m2 in 12 Std. -
Di, 26.10. 2:00 0.0 l/m2 in 6 Std. -
Mo, 25.10. 20:00 0.0 l/m2 in 12 Std. -
Mo, 25.10. 14:00 0.0 l/m2 in 6 Std. -
Mo, 25.10. 8:00 0.0 l/m2 in 12 Std. -
Mo, 25.10. 2:00 0.0 l/m2 in 6 Std. -
Ortszeit Niederschlagsmenge Niederschlagsart
Di, 26.10. 22:00 0.0 l/m2 in 1 Std. -
Di, 26.10. 21:50 keine Meldung -
Di, 26.10. 21:40 keine Meldung -
Di, 26.10. 21:30 0.0 l/m2 in 1 Std. -
Di, 26.10. 21:20 keine Meldung -
Di, 26.10. 21:10 keine Meldung -
Di, 26.10. 21:00 0.0 l/m2 in 1 Std. -
Di, 26.10. 20:30 0.0 l/m2 in 1 Std. -
Di, 26.10. 20:00 0.0 l/m2 in 1 Std. -
Di, 26.10. 19:30 0.0 l/m2 in 1 Std. -
Di, 26.10. 19:00 0.0 l/m2 in 1 Std. -
Ortszeit Stärke Spitze Richtung
km/h Bft. km/h Grad Sektor
Di, 26.10. 20:00 0 0 22 - -
Di, 26.10. 14:00 2 1 7 20° N
Di, 26.10. 8:00 4 1 11 120° SO
Di, 26.10. 2:00 4 1 7 190° S
Mo, 25.10. 20:00 4 1 11 170° S
Mo, 25.10. 14:00 4 1 7 240° SW
Mo, 25.10. 8:00 2 1 6 180° S
Mo, 25.10. 2:00 0 0 7 - -
Ortszeit Stärke Spitze Richtung
km/h Bft. km/h Grad Sektor
Di, 26.10. 22:00 4 1 7 10° N
Di, 26.10. 21:50 4 1 - 10° N
Di, 26.10. 21:40 2 1 - 20° N
Di, 26.10. 21:30 4 1 7 60° NO
Di, 26.10. 21:20 4 1 - 60° NO
Di, 26.10. 21:10 4 1 - 70° O
Di, 26.10. 21:00 4 1 7 130° SO
Di, 26.10. 20:30 4 1 7 110° O
Di, 26.10. 20:00 0 0 7 - -
Di, 26.10. 19:30 0 0 7 - -
Di, 26.10. 19:00 7 2 11 110° O
Ortszeit Untergrenze Bedeckung Gattung
total tief tief mittel hoch
Di, 26.10. 20:00 1500 m 4/8 6/8 - - -
Di, 26.10. 14:00 480 m 8/8 8/8 - - -
Di, 26.10. 8:00 4200 m 5/8 4/8 - - -
Di, 26.10. 2:00 4200 m 3/8 3/8 - - -
Mo, 25.10. 20:00 5700 m 8/8 8/8 - - -
Mo, 25.10. 14:00 7200 m 4/8 0/8 - - -
Mo, 25.10. 8:00 7800 m 0/8 0/8 - - -
Mo, 25.10. 2:00 - 0/8 0/8 - - -
Ortszeit Bedeckungsgrad in Achtel und Wolkenuntergrenze
Di, 26.10. 22:00 5(690m) 7(870m)
Di, 26.10. 21:50 5(690m) 7(870m)
Di, 26.10. 21:40 4(720m) 7(870m)
Di, 26.10. 21:30 2(720m) 7(960m)
Di, 26.10. 21:20 2(720m) 7(960m)
Di, 26.10. 21:10 4(720m) 7(990m)
Di, 26.10. 21:00 3(720m) 4(840m) 7(1500m)
Di, 26.10. 20:30 3(870m) 6(990m) 7(1500m)
Di, 26.10. 20:00 4(1500m) 6(1500m)
Di, 26.10. 19:30 keine Wolken
Di, 26.10. 19:00 2(660m)
Ortszeit Luftdruck NN (hPa) Tendenz (hPa in 3 Std.)
Di, 26.10. 20:00 1028 + 1,4
Di, 26.10. 14:00 1025 - 0,1
Di, 26.10. 8:00 1027 + 0,9
Di, 26.10. 2:00 1025 + 0,4
Mo, 25.10. 20:00 1023 + 0,3
Mo, 25.10. 14:00 1023 - 1,2
Mo, 25.10. 8:00 1027 - 0,4
Mo, 25.10. 2:00 1028 - 1,0
Ortszeit Luftdruck NN (hPa) Tendenz (hPa in 3 Std.)
Di, 26.10. 22:00 1028 + 1,2
Di, 26.10. 21:50 1028 keine Meldung
Di, 26.10. 21:40 1028 keine Meldung
Di, 26.10. 21:30 1028 + 1,1
Di, 26.10. 21:20 1028 keine Meldung
Di, 26.10. 21:10 1028 keine Meldung
Di, 26.10. 21:00 1028 + 1,3
Di, 26.10. 20:30 1028 + 1,8
Di, 26.10. 20:00 1028 + 1,4
Di, 26.10. 19:30 1027 + 1,3
Di, 26.10. 19:00 1026 + 1,0
Ortszeit Schneehöhe (cm)
Di, 26.10. 20:00 0
Di, 26.10. 14:00 0
Di, 26.10. 8:00 0
Di, 26.10. 2:00 0
Mo, 25.10. 20:00 0
Mo, 25.10. 14:00 0
Mo, 25.10. 8:00 0
Mo, 25.10. 2:00 0
Ortszeit Schneehöhe (cm)
Di, 26.10. 22:00 0
Di, 26.10. 21:50 0
Di, 26.10. 21:40 0
Di, 26.10. 21:30 0
Di, 26.10. 21:20 0
Di, 26.10. 21:10 0
Di, 26.10. 21:00 0
Di, 26.10. 20:30 0
Di, 26.10. 20:00 0
Di, 26.10. 19:30 0
Di, 26.10. 19:00 0
Link zu dieser Seite / Seite empfehlen

Das Wetter in ...